FW5122 Weather Reports


time (UTC)temp
F
wind
direction
speed
knots
gust
knots
rain 1hr
in
rain 24hr
in
rain mn
in
humidity
%
barometer
mb
20260509182233 87 31 4.3 7.0 0.00 0.00 0.00 61 1010.4
20260509181533 87 298 7.0 7.0 0.00 0.00 0.00 61 1010.7
20260509180833 87 9 4.3 5.2 0.00 0.00 0.00 61 1010.4
20260509174733 87 8 1.7 7.0 0.00 0.00 0.00 61 1010.7
20260509174033 86 16 4.3 7.0 0.00 0.00 0.00 61 1011.1
20260509173333 86 7 1.7 7.0 0.00 0.00 0.00 62 1011.1
20260509172635 87 9 1.7 7.0 0.00 0.00 0.00 61 1011.1
20260509171932 86 5 4.3 7.0 0.00 0.00 0.00 62 1011.1
20260509171233 85 10 1.7 7.0 0.00 0.00 0.00 63 1011.1
20260509170532 85 20 4.3 7.0 0.00 0.00 0.00 62 1011.4
20260509165833 86 354 7.0 7.0 0.00 0.00 0.00 63 1011.1
20260509165133 86 353 0.0 7.0 0.00 0.00 0.00 63 1011.1
20260509163733 85 2 7.0 8.7 0.00 0.00 0.00 65 1011.4
20260509163033 84 2 4.3 8.7 0.00 0.00 0.00 64 1011.1
20260509162333 84 12 1.7 8.7 0.00 0.00 0.00 66 1011.4
20260509161633 84 6 1.7 8.7 0.00 0.00 0.00 65 1011.1
20260509160932 83 1 1.7 8.7 0.00 0.00 0.00 66 1011.1
20260509160233 82 1 1.7 8.7 0.00 0.00 0.00 67 1011.1
20260509155532 82 35 4.3 8.7 0.00 0.00 0.00 67 1011.4
20260509154833 81 352 4.3 8.7 0.00 0.00 0.00 69 1011.1
20260509154132 80 4 12.2 8.7 0.00 0.00 0.00 70 1011.1
20260509152732 79 4 4.3 5.2 0.00 0.00 0.00 73 1011.4
20260509152033 78 7 0.0 5.2 0.00 0.00 0.00 74 1011.1
20260509150632 77 339 7.0 5.2 0.00 0.00 0.00 75 1011.1
20260509145932 77 2 4.3 7.0 0.00 0.00 0.00 76 1011.1
20260509143832 76 8 4.3 7.0 0.00 0.00 0.00 79 1011.4
20260509143132 75 358 0.0 7.0 0.00 0.00 0.00 79 1011.1
20260509142432 75 355 4.3 7.0 0.00 0.00 0.00 81 1011.4
20260509141032 74 8 1.7 7.0 0.00 0.00 0.00 81 1011.1
20260509140333 73 17 4.3 5.2 0.00 0.00 0.00 82 1011.4
20260509135632 73 2 0.0 5.2 0.00 0.00 0.00 82 1011.1
20260509134933 73 352 4.3 5.2 0.00 0.00 0.00 82 1011.4
20260509134232 73 348 4.3 5.2 0.00 0.00 0.00 83 1011.1
20260509133532 73 1 1.7 5.2 0.00 0.00 0.00 83 1010.7
20260509132132 72 7 4.3 5.2 0.00 0.00 0.00 83 1011.1
20260509131432 72 319 4.3 5.2 0.00 0.00 0.00 83 1010.7
20260509130732 71 354 1.7 5.2 0.00 0.00 0.00 83 1011.1
20260509130031 72 1 0.0 5.2 0.00 0.00 0.00 83 1010.7
20260509125531 72 4 1.7 5.2 0.00 0.00 0.00 83 1010.7
20260509124831 71 5 0.0 5.2 0.00 0.00 0.00 84 1010.7
20260509124132 71 358 1.7 5.2 0.00 0.00 0.00 84 1010.7
20260509122732 71 0 0.0 5.2 0.00 0.00 0.00 86 1010.7
20260509122031 70 9 1.7 5.2 0.00 0.00 0.00 87 1010.4
20260509120632 70 6 0.0 3.5 0.00 0.00 0.00 88 1010.7
20260509115931 69 6 1.7 3.5 0.00 0.00 0.00 88 1010.4
20260509113831 70 10 1.7 3.5 0.00 0.00 0.00 88 1010.1
20260509113131 70 11 0.0 3.5 0.00 0.00 0.00 88 1010.1
20260509111731 70 14 1.7 3.5 0.00 0.00 0.00 88 1009.7
20260509111031 70 14 0.0 3.5 0.00 0.00 0.00 88 1009.7
20260509110331 70 15 4.3 3.5 0.00 0.00 0.00 88 1009.4
20260509105631 70 30 1.7 3.5 0.00 0.00 0.00 88 1009.7
20260509104932 70 11 0.0 3.5 0.00 0.00 0.00 87 1009.7
20260509103531 70 12 0.0 3.5 0.00 0.00 0.00 88 1009.7
20260509102131 70 11 0.0 3.5 0.00 0.00 0.00 88 1009.7
20260509101431 70 11 0.0 3.5 0.00 0.00 0.00 88 1009.4
20260509095331 70 356 4.3 7.0 0.00 0.00 0.00 88 1009.4
20260509094631 70 346 4.3 8.7 0.00 0.00 0.00 88 1009.1
20260509093231 69 357 1.7 8.7 0.00 0.00 0.00 87 1008.7
20260509092531 69 13 0.0 8.7 0.00 0.00 0.00 87 1007.7
20260509091831 69 39 4.3 8.7 0.00 0.00 0.00 87 1007.7
20260509090431 69 10 1.7 8.7 0.00 0.00 0.00 86 1007.4
20260509085731 69 6 0.0 8.7 0.00 0.00 0.00 86 1007.7
20260509085031 70 127 7.0 8.7 0.00 0.00 0.00 85 1007.4
20260509083632 70 20 7.0 8.7 0.00 0.00 0.00 85 1008.4
20260509082931 70 23 7.0 7.0 0.00 0.00 0.00 85 1008.7
20260509082231 70 23 1.7 3.5 0.00 0.00 0.00 85 1009.4
20260509080831 71 11 0.0 3.5 0.00 0.00 0.00 85 1009.7
20260509080131 71 22 1.7 3.5 0.00 0.00 0.00 84 1010.4
20260509075431 71 13 0.0 3.5 0.00 0.00 0.00 84 1010.4
20260509074731 71 20 0.0 3.5 0.00 0.00 0.00 84 1010.4
20260509074031 71 8 1.7 3.5 0.00 0.00 0.00 85 1010.7
20260509073331 71 14 0.0 3.5 0.00 0.00 0.00 85 1010.7
20260509072631 71 7 0.0 3.5 0.00 0.00 0.00 86 1011.1
20260509071931 70 3 1.7 3.5 0.00 0.00 0.00 86 1011.4
20260509071231 70 9 1.7 1.7 0.00 0.00 0.00 85 1011.4
20260509065831 69 12 0.0 1.7 0.00 0.00 0.00 84 1011.1
20260509065133 70 12 0.0 1.7 0.00 0.00 0.00 84 1010.7
20260509064431 70 13 0.0 1.7 0.00 0.00 0.00 83 1010.7
20260509063730 70 9 0.0 1.7 0.00 0.00 0.00 83 1011.1
20260509063031 70 9 0.0 1.7 0.00 0.00 0.00 83 1011.1
20260509062330 70 13 0.0 1.7 0.00 0.00 0.00 82 1011.1
20260509061630 70 13 0.0 1.7 0.00 0.00 0.00 82 1011.4
20260509060231 71 12 0.0 1.7 0.00 0.00 0.00 82 1011.8
20260509055531 71 12 0.0 1.7 0.00 0.00 0.00 81 1011.4
20260509054830 71 12 0.0 1.7 0.00 0.00 0.00 81 1011.8
20260509054131 71 11 0.0 1.7 0.00 0.00 0.00 81 1012.1
20260509053430 71 8 0.0 3.5 0.00 0.00 0.00 81 1011.8
20260509050631 72 9 0.0 5.2 0.00 0.00 0.00 79 1010.7
20260509045931 72 10 0.0 5.2 0.00 0.00 0.00 79 1011.1
20260509045231 72 5 0.0 5.2 0.00 0.00 0.00 79 1011.1
20260509044530 72 64 4.3 5.2 0.00 0.00 0.00 79 1010.4
20260509043830 72 9 0.0 5.2 0.00 0.00 0.00 78 1010.4
20260509041730 73 11 1.7 3.5 0.00 0.00 0.00 78 1011.1
20260509040330 73 5 0.0 3.5 0.00 0.00 0.00 78 1011.4
20260509034931 73 8 0.0 3.5 0.00 0.00 0.00 77 1011.1
20260509034230 73 16 0.0 3.5 0.00 0.00 0.00 77 1010.7
20260509033535 73 42 4.3 3.5 0.00 0.00 0.00 77 1010.4
20260509032830 73 9 0.0 3.5 0.00 0.00 0.00 77 1010.7
20260509031431 72 9 0.0 3.5 0.00 0.00 0.00 77 1010.4
20260509030730 72 10 0.0 3.5 0.00 0.00 0.00 77 1010.4
20260509030031 72 10 0.0 7.0 0.00 0.00 0.00 77 1010.1
20260509025330 72 9 0.0 7.0 0.00 0.00 0.00 76 1010.1
20260509024630 72 18 1.7 7.0 0.00 0.00 0.00 76 1010.1
20260509023930 72 10 1.7 7.0 0.00 0.00 0.00 76 1010.1
20260509023230 72 20 0.0 7.0 0.00 0.00 0.00 75 1009.7
20260509022530 72 8 0.0 7.0 0.00 0.00 0.00 75 1010.1
20260509021830 72 12 1.7 7.0 0.00 0.00 0.00 75 1009.7
20260509020430 73 77 1.7 5.2 0.00 0.00 0.00 75 1009.7
20260509015730 73 11 1.7 5.2 0.00 0.00 0.00 75 1009.7
20260509015030 73 15 1.7 5.2 0.00 0.00 0.00 74 1009.7
20260509014330 73 7 1.7 5.2 0.00 0.00 0.00 74 1009.7
20260509013630 73 15 0.0 5.2 0.00 0.00 0.00 74 1010.1
20260509012930 73 92 4.3 5.2 0.00 0.00 0.00 74 1009.7
20260509012230 73 26 1.7 5.2 0.00 0.00 0.00 74 1009.7
20260509011530 73 30 0.0 5.2 0.00 0.00 0.00 74 1009.4
20260509010832 73 14 1.7 5.2 0.00 0.00 0.00 73 1009.1
20260509010132 73 13 1.7 5.2 0.00 0.00 0.00 73 1009.1
20260509005432 73 11 1.7 5.2 0.00 0.00 0.00 73 1009.1
20260509004732 73 50 4.3 12.2 0.00 0.00 0.00 72 1009.1
20260509002632 74 13 1.7 12.2 0.00 0.00 0.00 72 1009.1
20260509001932 74 29 1.7 12.2 0.00 0.00 0.00 72 1009.1
20260509001232 74 82 4.3 12.2 0.00 0.00 0.00 71 1009.1
20260509000532 74 14 1.7 12.2 0.00 0.00 0.00 71 1009.1
20260508235832 74 78 7.0 7.0 0.00 0.00 0.00 71 1009.4
20260508235132 74 31 1.7 7.0 0.00 0.00 0.00 71 1009.4
20260508234432 74 117 7.0 8.7 0.00 0.00 0.00 70 1009.4
20260508233032 74 0 4.3 10.4 0.00 0.00 0.00 70 1009.4
20260508232332 74 14 1.7 10.4 0.00 0.00 0.00 70 1009.4
20260508231632 74 53 1.7 10.4 0.00 0.00 0.00 69 1009.1
20260508230932 74 2 4.3 10.4 0.00 0.00 0.00 69 1009.4
20260508225531 74 51 1.7 10.4 0.00 0.00 0.00 69 1009.7
20260508224832 74 58 14.8 10.4 0.00 0.00 0.00 68 1009.4
20260508223432 75 1 12.2 12.2 0.00 0.00 0.00 68 1009.7
20260508222731 75 52 4.3 12.2 0.00 0.00 0.00 68 1009.4
20260508221332 75 8 1.7 12.2 0.00 0.00 0.00 67 1009.7
20260508220631 75 11 4.3 12.2 0.00 0.00 0.00 67 1009.7
20260508215931 75 3 4.3 12.2 0.00 0.00 0.00 66 1009.7
20260508215232 76 41 7.0 12.2 0.00 0.00 0.00 66 1009.7
20260508214532 76 31 1.7 10.4 0.00 0.00 0.00 66 1009.7
20260508213832 76 323 7.0 10.4 0.00 0.00 0.00 67 1009.7
20260508213132 76 88 7.0 10.4 0.00 0.00 0.00 67 1009.7
20260508212431 76 0 1.7 10.4 0.00 0.00 0.00 69 1009.4
20260508211731 74 351 4.3 7.0 0.00 0.00 0.00 71 1009.4
20260508211032 72 11 1.7 7.0 0.00 0.00 0.00 72 1009.7
20260508210331 72 51 7.0 7.0 0.00 0.00 0.00 69 1009.7
20260508205632 73 358 7.0 5.2 0.00 0.00 0.00 69 1010.4
20260508204932 73 62 4.3 5.2 0.00 0.00 0.00 69 1011.1
20260508204231 73 14 1.7 5.2 0.00 0.00 0.00 68 1011.1
20260508203531 73 20 0.0 5.2 0.00 0.00 0.00 68 1011.4
20260508202832 73 5 0.0 7.0 0.00 0.00 0.00 68 1011.8
20260508202131 73 28 4.3 7.0 0.00 0.00 0.00 67 1011.8
20260508200731 75 15 0.0 8.7 0.00 0.00 0.00 66 1011.4
20260508200031 75 10 7.0 8.7 0.00 0.00 0.00 66 1011.4
20260508195331 75 7 0.0 8.7 0.00 0.00 0.00 66 1011.4
20260508194631 75 14 4.3 8.7 0.00 0.00 0.00 66 1011.1
20260508193232 76 21 4.3 8.7 0.00 0.00 0.00 66 1011.4
20260508192531 75 355 4.3 8.7 0.00 0.00 0.00 65 1011.8
20260508191831 75 24 4.3 8.7 0.00 0.00 0.00 65 1011.8
20260508191131 76 21 1.7 8.7 0.00 0.00 0.00 65 1011.8
20260508190431 76 54 12.2 12.2 0.00 0.00 0.00 64 1011.8
20260508185731 76 58 7.0 12.2 0.00 0.00 0.00 64 1011.8
20260508185031 76 31 7.0 12.2 0.00 0.00 0.00 64 1012.1
20260508183631 77 122 4.3 12.2 0.00 0.00 0.00 63 1012.1
20260508182931 77 21 4.3 12.2 0.00 0.00 0.00 63 1012.4